www.pogodaiklimat.ru

Погода и климат >> Архив погоды >> Россия >> Калмыкия >> Юста


ПОГОДА в Юсте

  • Прогноз погоды в Юсте
  • Монитор погоды в Юсте
  • Климат города

АРХИВ ПОГОДЫ в Юсте

Время (UTC), дата Ветер
(напр.,м/с)
 
Видим.   Явления Облачность Т
(С)
Тd
(С)
f
(%)
Тe
(С)
Тes
(С)
Комфортность P
(гПа)
Po
(гПа)
Тmin
(С)
Tmax
(С)
R
(мм)
R24
(мм)
S
(см)
00 18.05 З 1 10 км 9/0
[Ac trans]
+11.8 +7.8 76 +12 +12 1016.9 1016.5
03 18.05 З 1 10 км 9/0
[Ac trans]
+11.8 +7.8 76 +12 +13 1016.9 1016.5
06 18.05 штиль 0 20 км 9/0
[Ac cuf]
+14.8 +9.5 71 +15 +20 1016.7 1016.4 +11.5
09 18.05 СЗ 7 20 км пыльный позёмок 10/10 600 м
[Cb cap]
+17.9 +12.2 69 +17 +17 1016.6 1016.3
12 18.05 С 4 20 км 9/9 600 м
[Sc diur, vesp]
+18.1 +10.9 63 +18 +19 1016.7 1016.3
15 18.05 С 4 20 км 9/8 600 м
[Sc diur, vesp Ac As]
+16.9 +11.0 68 +16 +17 1016.5 1016.2 +23.3
18 18.05 В 3 10 км 9/5 600 м
[Sc Ac As]
+15.1 +11.1 77 +14 +14 1017.2 1016.8
21 18.05 В 3 4000 м слабый ливневой дождь 10/10 300 м
[Cb cap]
+14.7 +12.1 84 +14 +14 1016.6 1016.2
00 19.05 ЮВ 2 4000 м слабый ливневой дождь 10/10 300 м
[Cb cap]
+13.5 +12.4 93 +13 +13 1015.7 1015.4
03 19.05 В 2 4000 м слабый дождь {ливн. осадки} 10/10 300 м
[Frnb]
+13.4 +12.5 94 +13 +13 1014.7 1014.3 +13.3 3
06 19.05 В 5 4000 м слабый дождь {ливн. осадки} 10/0 300 м
[As op]
+13.9 +13.6 98 +12 +13 1014.5 1014.1 +13.1
09 19.05 В 5
{10}
4000 м слабый дождь 10/10 300 м
[Frnb]
+14.5 +13.7 95 +13 +13 1013.6 1013.2
12 19.05 СВ 5 4000 м слабый дождь 10/10 300 м
[Frnb]
+15.1 +14.3 95 +14 +14 1012.6 1012.2
15 19.05 С 2 4000 м слабый дождь 10/0 300 м
[As op]
+15.7 +14.9 95 +16 +16 1012.2 1011.8 +15.9 10
18 19.05 С 2 10 км {дождь} 9/9 300 м
[Sc]
+15.0 +14.6 97 +15 +15 1012.1 1011.8
21 19.05 СВ 1 10 км 3/0
[Ac trans]
+12.9 +12.5 97 +13 +13 1011.1 1010.7
00 20.05 С 2 10 км 3/0
[Ac trans]
+11.4 +11.3 99 +10 +10 1010.1 1009.8
03 20.05 С 3 500 м туман ?/? +11.9 +11.9 100 +10 +10 1009.1 1008.7 +11.4 0.8
06 20.05 СВ 3 20 км {туман} 8/4 600 м
[Sc Ac trans Ci fib]
+16.6 +14.0 85 +16 +20 1008.2 1007.8
09 20.05 СВ 1 20 км 10/5 600 м
[Sc Ac cuf]
+19.0 +13.3 70 +21 +24 комфорт 1007.1 1006.7
12 20.05 СЗ 4 20 км 10/4 600 м
[Sc Ac cuf]
+20.1 +13.7 67 +22 +24 комфорт 1005.6 1005.3
15 20.05 СЗ 6 20 км 9/6 600 м
[Sc Ac cuf]
+18.5 +13.0 70 +19 +19 1005.1 1004.7 +20.8
18 20.05 З 2 10 км 8/0
[Ac cuf Ci fib]
+14.7 +12.2 85 +14 +14 1005.6 1005.2
21 20.05 З 5 10 км ясно +12.4 +11.6 95 +10 +10 1005.4 1005.0
00 21.05 З 3 10 км ясно +10.7 +10.2 97 +9 +9 1005.1 1004.7
03 21.05 З 4 20 км 3/0
[Ci sp]
+11.7 +10.6 93 +9 +11 1005.2 1004.8 +10.4
06 21.05 З 8-11
{11}
20 км 4/0
[Ci fib]
+18.5 +8.3 51 +18 +20 1004.4 1004.1
09 21.05 З 7-11
{12}
20 км 8/3 1000 м
[Cu hum As trans Ci fib]
+21.7 +7.4 40 +23 +25 комфорт 1004.0 1003.6
12 21.05 З 10-14
{14}
20 км 8/0
[As trans Ci fib]
+22.4 +5.6 34 +23 +23 комфорт 1003.8 1003.5
15 21.05 З 8-11
{14}
20 км 8/0
[Ac trans Ci fib]
+21.5 +6.4 37 +22 +22 комфорт 1004.0 1003.6 +22.7
18 21.05 ЮЗ 3
{12}
10 км 4/0
[Ci fib]
+16.2 +9.4 64 +16 +16 1005.2 1004.8
21 21.05 З 5 10 км 4/0
[Ci fib]
+13.8 +10.0 78 +12 +12 1005.1 1004.7
00 22.05 З 5 10 км 9/0
[Ac trans]
+14.1 +10.8 81 +12 +12 1004.9 1004.5
03 22.05 З 5 20 км 9/8 600 м
[Sc Ac trans]
+15.2 +11.1 77 +14 +14 1005.4 1005.1 +13.3
06 22.05 З 6
{10}
20 км 3/0
[Ac trans]
+19.7 +11.5 59 +21 +25 комфорт 1005.2 1004.9
09 22.05 З 6-10
{11}
20 км 8/8 1000 м
[Cu med, cong]
+22.9 +8.2 39 +24 +25 комфорт 1005.1 1004.7
12 22.05 З 7-11
{12}
20 км 8/6 1000 м
[Cu med, cong Cs]
+24.6 +7.7 34 +25 +26 комфорт 1004.8 1004.5
15 22.05 З 7-10
{12}
20 км 8/3 1000 м
[Cu med, cong Cs]
+23.0 +7.2 36 +24 +24 комфорт 1005.9 1005.6 +24.7
18 22.05 СЗ 2
{14}
10 км 4/0
[Ac trans]
+16.5 +11.9 74 +17 +17 1008.0 1007.7
21 22.05 СЗ 4 10 км ясно +13.6 +12.7 94 +12 +12 1009.1 1008.7
00 23.05 СЗ 4 10 км 9/0
[Ac As]
+11.6 +10.5 93 +9 +9 1009.9 1009.5
03 23.05 С 4 20 км 9/9 600 м
[Sc]
+11.5 +9.9 90 +9 +9 1011.5 1011.1 +11.2
06 23.05 С 4 20 км 8/0
[Ac und Cs]
+15.5 +7.2 58 +15 +18 1013.0 1012.7
09 23.05 СЗ 2 20 км 8/6 1000 м
[Cu hum Ac und Cs]
+18.4 +4.0 38 +19 +24 1013.9 1013.5
12 23.05 С 3 20 км 8/6 1000 м
[Cu hum Ac und Ci fib]
+20.1 +3.4 33 +21 +24 комфорт 1014.1 1013.7
15 23.05 С 4 20 км 8/0
[Ac und Ci fib]
+18.0 +2.8 36 +18 +18 1015.0 1014.6 +20.1
18 23.05 С 3 10 км 3/0
[Ac trans]
+11.1 +3.9 61 +9 +9 1017.0 1016.6
21 23.05 С 3 10 км ясно +8.8 +4.8 76 +6 +6 1018.0 1017.6
00 24.05 СВ 2 10 км ясно +7.1 +3.9 80 +5 +5 1018.6 1018.2
03 24.05 В 3 20 км 4/0
[Ci fib]
+11.3 +4.6 63 +10 +11 1019.1 1018.8 +7.1
06 24.05 В 5 20 км 4/0
[Cs]
+17.7 +0.2 31 +17 +23 1019.6 1019.3
09 24.05 В 4 20 км 5/0
[Cs]
+19.4 +0.4 28 +20 +31 1019.3 1018.9
12 24.05 В 5
{11}
20 км 9/0
[As trans]
+19.7 -2.5 22 +19 +22 1018.5 1018.2
15 24.05 СВ 3 20 км 9/0
[Ac und]
+19.3 -1.4 25 +20 +20 1018.5 1018.1 +20.3
18 24.05 С 2 10 км 9/0
[Ac As]
+15.3 +3.9 46 +15 +15 1019.5 1019.1

 

Местоположение метеостанции Юста (Калмыкия, Россия): широта 47.13 долгота 46.32 высота над уровнем моря 3 м.

В архиве по умолчанию представлена погода в Юсте за последнюю неделю. Архивные данные за месяц целиком и за предыдущие месяцы, начиная с января 2011 года, Вы можете получить, выбрав интересующий диапазон дат из раскрывающегося списка и нажав кнопку "Ввод!".

Внимание! Время в таблицах - всемирное. Для получения местного времени необходимо прибавить поправку, которая в Юсте равна 3 ч.

Смотрите также архив погоды в соседних городах и на ближайших метеорологических станциях:

Погода в Харабали (Астраханская область, Россия) (76 км)
Погода в Утте (Калмыкия, Россия) (88 км)
Погода в Черный Яр (Астраханская область, Россия) (106 км)
Погода в Досанге (Астраханская область, Россия) (124 км)
Погода в Верхнем Баскунчаке (Астраханская область, Россия) (125 км)
Погода в Яшкуле (Калмыкия, Россия) (129 км)
Погода в Кетченерах (Калмыкия, Россия) (134 км)
Погода в Малых Дербетах (Калмыкия, Россия) (151 км)
Погода в Астрахани (Астраханская область, Россия) (158 км)
Погода в Лимане (Астраханская область, Россия) (163 км)

Пояснения к столбцам:

Ветер - указаны скорость ветра в м/с - средняя за 10 мин, порывы в срок и между сроками (в фигурных скобках) и направление, откуда дует ветер: С - северный, СВ - северо-восточный, В - восточный, ЮВ - юго-восточный, Ю - южный, ЮЗ - юго-западный, З - западный, СЗ - северо-западный.
Видимость - горизонтальная дальность видимости в метрах или километрах. При видимости от 1 до 10 км при отсутствии осадков обычно наблюдается дымка, при ухудшении видимости до 1 км и менее - туман. В сухую погоду видимость может ухудшаться дымом, пылью или мглою.
Явления - указаны атмосферные явления, наблюдавшиеся в срок или в последний час перед сроком; фигурными скобками обозначены явления, наблюдавшиеся между сроками (за 1-3 часа до срока); квадратными скобками обозначены град или гололедные отложения с указанием их диаметра в мм.
Облачность - указаны через наклонную черту общая и нижняя облачность в баллах и высота нижней границы облаков в метрах; квадратными скобками обозначены формы облаков: Ci - перистые, Cs - перисто-слоистые, Cc - перисто-кучевые, Ac - высококучевые, As - высокослоистые, Sc - слоисто-кучевые, Ns - слоисто-дождевые, Cu - кучевые, Cb - кучево-дождевые. Подробнее классификацию облаков см. в Атласе облаков (PDF).
T - Температура воздуха - температура, измеренная на высоте 2 м над землей.
Td - Температура точки росы - температура, при понижении до которой содержащийся в воздухе водяной пар достигнет насыщения.
f - Относительная влажность воздуха - влажноcть воздуха, измеренная на высоте 2 м над землей.
Te - Эффективная температура - температура, которую ощущает одетый по сезону человек в тени. Характеристика душности погоды. При расчете учитывается влияние влажности воздуха и скорости ветра на теплоощущения человека.
Tes - Эффективная температура на солнце - температура, которую ощущает человек, с поправкой на солнечный нагрев. Характеристика знойности погоды. Зависит от высоты солнца над горизонтом, облачности и скорости ветра. Ночью, в пасмурную погоду, а также при ветре 12 м/с и более поправка равна нулю.
P - Атмосферное давление - приведенное к уровню моря атмосферное давление.
Po - Атмосферное давление - измеренное на уровне метеостанции атмосферное давление.
Tmin - Минимальная температура - минимум температуры воздуха на высоте 2 м над землей.
Tmax - Максимальная температура - максимум температуры воздуха на высоте 2 м над землей.
R - Количество осадков - Количество выпавших осадков за период времени, мм. При наведении курсора мыши на число - период времени, за который выпало указанное количество осадков.
R24 - Количество осадков - Количество выпавших осадков за 24 часа, мм.
S - Снежный покров - Высота снежного покрова, см. При наведении курсора мыши на число - состояние снежного покрова и степень покрытия местности в баллах.